year,CST,Max.TemperatureC,Mean.TemperatureC,Min.TemperatureC,Dew.PointC,MeanDew.PointC,Min.DewpointC,Max.Humidity,Mean.Humidity,Min.Humidity,Max.Sea.Level.PressurehPa,Mean.Sea.Level.PressurehPa,Min.Sea.Level.PressurehPa,Max.VisibilityKm,Mean.VisibilityKm,Min.VisibilitykM,Max.Wind.SpeedKm.h,Mean.Wind.SpeedKm.h,Max.Gust.SpeedKm.h,Precipitationmm,CloudCover,Events,WindDirDegrees.br...
2007,2007/1/1,4,3,3,4,2,2,100,93,87,1030,1028,1027,3,1,1,14,10,NA,3.05,7,Fog-Rain,317<br />
2007,2007/1/2,4,3,2,4,2,0,100,92,87,1030,1028,1027,3,1,0,14,8,NA,5.08,6,Fog-Rain,12<br />
2007,2007/1/3,4,3,2,2,1,-1,98,83,75,1033,1030,1028,8,3,1,14,10,NA,0.25,4,Rain,6<br />
2007,2007/1/4,5,2,0,2,-1,-3,87,77,62,1032,1031,1029,5,3,2,11,6,NA,0,4,,349<br />
2007,2007/1/5,8,3,-1,1,-1,-3,100,75,41,1032,1030,1027,10,3,1,18,5,NA,0,2,Fog,266<br />
2007,2007/1/6,4,2,-1,-2,-9,-13,75,42,15,1036,1034,1031,14,9,3,32,16,NA,0,0,,286<br />
2007,2007/1/7,7,2,-3,-4,-8,-15,75,51,13,1036,1034,1031,10,7,3,11,6,NA,0,0,,254<br />
2007,2007/1/8,7,2,-3,-4,-8,-12,75,50,15,1037,1034,1033,10,7,1,11,5,NA,0,1,,306<br />
2007,2007/1/9,9,3,-3,-2,-5,-8,90,61,23,1033,1030,1027,10,5,1,11,5,NA,0,1,Fog,130<br />
2007,2007/1/10,12,4,-3,-1,-4,-7,86,57,21,1032,1029,1027,10,6,2,11,6,NA,0,0,,102<br />
2007,2007/1/11,9,3,-2,3,-1,-5,83,68,55,1032,1030,1027,10,4,1,14,8,NA,0.25,2,,19<br />
2007,2007/1/12,6,3,2,4,1,-3,100,87,70,1036,1033,1032,6,2,1,14,10,NA,4.06,8,Rain,4<br />
2007,2007/1/13,6,3,0,-2,-4,-7,78,61,31,1036,1033,1031,10,6,3,14,6,NA,0,5,,56<br />
2007,2007/1/14,4,2,-1,2,-3,-7,100,69,44,1034,1031,1029,8,4,1,14,6,NA,0.51,8,Rain-Snow,73<br />
2007,2007/1/15,3,2,2,3,1,0,100,93,87,1029,1028,1026,6,2,1,6,3,NA,2.03,8,Fog-Rain-Snow,258<br />
2007,2007/1/16,5,3,2,3,1,0,94,86,70,1030,1029,1027,3,1,0,11,5,NA,0,5,Fog,257<br />
2007,2007/1/17,7,3,-1,2,-1,-3,100,80,42,1032,1030,1028,5,1,0,11,5,NA,0,2,Fog-Snow,243<br />
2007,2007/1/18,9,3,-3,2,-1,-3,100,82,36,1032,1030,1029,10,2,0,6,3,NA,0,1,Fog-Snow,170<br />
2007,2007/1/19,8,4,0,3,1,-2,100,83,59,1030,1028,1025,5,1,0,11,3,NA,0,3,Fog,116<br />
2007,2007/1/20,9,4,0,5,2,-1,100,87,60,1030,1028,1026,6,2,0,11,5,NA,0,6,Fog,91<br />
2007,2007/1/21,11,8,5,6,2,-1,93,70,41,1031,1029,1028,10,4,1,14,6,NA,0,6,,60<br />
2007,2007/1/22,6,4,2,2,0,-1,87,75,65,1033,1031,1030,5,2,1,18,10,NA,0,6,Rain,50<br />
2007,2007/1/23,4,2,0,3,1,-1,100,86,74,1034,1032,1031,6,3,1,11,8,NA,1.02,8,Rain,321<br />
2007,2007/1/24,6,1,-4,4,-1,-4,100,88,67,1035,1032,1030,3,1,0,6,5,NA,0,1,Fog,166<br />
2007,2007/1/25,7,3,-1,3,0,-3,100,84,61,1030,1028,1025,10,2,0,11,5,NA,0,1,Fog,133<br />
2007,2007/1/26,6,2,-1,1,-3,-9,100,65,19,1035,1030,1027,6,3,0,18,8,NA,0,0,Fog,279<br />
2007,2007/1/27,9,3,-2,-2,-6,-12,100,55,11,1035,1031,1029,6,4,1,35,11,NA,0,0,,253<br />
2007,2007/1/28,8,3,-2,-4,-7,-11,75,49,14,1035,1031,1028,11,7,4,11,6,NA,0,0,,207<br />
2007,2007/1/29,13,6,-1,1,-2,-4,86,57,26,1028,1024,1020,10,7,3,21,8,NA,0,0,,159<br />
2007,2007/1/30,11,6,2,1,-3,-6,84,53,20,1033,1029,1025,10,5,2,14,6,NA,0,0,,85<br />
2007,2007/1/31,16,8,0,1,-2,-9,87,57,18,1036,1027,1024,10,5,2,35,10,58,0,0,,150<br />
2007,2007/2/1,8,2,-3,-4,-8,-11,69,45,18,1037,1034,1031,14,9,2,11,8,NA,0,0,,156<br />
2007,2007/2/2,11,4,-2,-1,-6,-12,94,51,9,1034,1031,1026,14,7,2,14,5,NA,0,0,,133<br />
2007,2007/2/3,16,8,1,1,-2,-4,75,51,20,1026,1023,1021,19,8,2,14,8,NA,0,0,,135<br />
2007,2007/2/4,17,10,4,2,0,-2,65,49,23,1023,1021,1017,11,6,3,14,8,NA,0,0,,124<br />
2007,2007/2/5,21,13,7,4,2,0,66,48,19,1020,1018,1016,10,7,5,11,6,NA,0,2,,139<br />
2007,2007/2/6,22,13,6,7,5,3,82,57,26,1022,1019,1017,10,5,2,11,5,NA,0,0,,122<br />
2007,2007/2/7,14,12,10,11,8,7,100,83,63,1023,1021,1019,5,2,1,18,10,NA,4.06,7,Fog-Rain,26<br />
2007,2007/2/8,10,8,5,10,6,4,100,94,87,1026,1024,1022,2,1,0,21,13,NA,3.05,7,Fog-Rain,292<br />
2007,2007/2/9,11,8,6,7,5,4,100,80,59,1025,1023,1021,10,2,1,18,6,NA,0,4,Fog-Rain,280<br />
2007,2007/2/10,14,8,3,6,2,-2,100,69,25,1026,1024,1021,11,4,0,14,5,NA,0,1,Fog-Rain,23<br />
2007,2007/2/11,13,8,2,6,1,-3,81,61,35,1026,1023,1018,14,7,3,14,6,NA,0,0,,119<br />
2007,2007/2/12,18,11,4,8,6,3,99,70,44,1019,1015,1012,10,4,1,21,8,NA,0,1,,127<br />
2007,2007/2/13,13,11,10,12,9,7,100,89,67,1019,1013,1009,5,2,1,18,8,NA,5.08,8,Fog-Rain,303<br />
2007,2007/2/14,11,7,3,11,-1,-10,99,56,16,1029,1025,1020,14,4,0,21,11,NA,0,5,Fog,16<br />
2007,2007/2/15,9,4,1,6,0,-5,94,70,47,1027,1021,1016,14,8,2,18,10,NA,3.05,5,Rain,86<br />
2007,2007/2/16,9,7,6,8,6,4,100,94,87,1016,1014,1012,8,3,1,14,8,NA,6.1,8,Rain,35<br />
2007,2007/2/17,8,7,6,8,6,5,100,94,87,1020,1017,1014,5,3,2,14,10,NA,0.25,8,Rain,309<br />
2007,2007/2/18,8,7,6,8,6,5,100,94,87,1023,1021,1019,3,2,0,14,8,NA,0,8,Fog-Rain,303<br />
2007,2007/2/19,11,6,1,8,4,1,100,86,66,1023,1020,1018,10,4,0,11,5,NA,0,5,Fog-Rain-Snow,98<br />
2007,2007/2/20,16,9,3,8,5,2,100,79,43,1021,1019,1018,10,4,0,6,3,NA,0,1,Fog,82<br />
2007,2007/2/21,16,10,4,8,6,4,100,76,47,1023,1019,1016,10,4,1,18,6,NA,0.25,1,Fog,89<br />
2007,2007/2/22,19,14,9,11,9,7,100,76,38,1019,1016,1015,11,5,1,14,6,NA,0.76,2,Rain,236<br />
2007,2007/2/23,18,12,7,10,7,5,100,73,51,1021,1019,1017,10,4,2,21,10,NA,0,0,,87<br />
2007,2007/2/24,11,9,7,7,5,3,81,73,66,1020,1018,1016,10,7,4,18,10,NA,0,6,Rain,59<br />
2007,2007/2/25,14,9,4,8,5,3,100,76,48,1023,1021,1019,19,6,1,11,5,NA,0,1,,109<br />
2007,2007/2/26,16,11,6,7,5,3,100,70,41,1023,1021,1019,19,7,2,26,10,NA,0,2,,90<br />
2007,2007/2/27,15,11,7,9,7,5,98,75,59,1024,1021,1019,10,7,3,21,11,NA,1.02,4,Rain,75<br />
2007,2007/2/28,13,11,9,12,9,7,100,90,77,1023,1019,1016,8,4,2,29,18,NA,12.95,6,Rain,101<br />
2007,2007/3/1,13,12,11,12,11,10,100,91,82,1019,1017,1015,6,3,0,14,8,NA,2.03,8,Fog-Rain,284<br />
2007,2007/3/2,16,13,11,15,12,10,100,93,82,1020,1018,1016,6,2,0,14,6,NA,0,8,Fog-Rain,20<br />
2007,2007/3/3,20,17,12,18,14,11,100,91,78,1017,1011,1006,10,3,1,35,13,NA,14.99,8,Rain-Thunderstorm,87<br />
2007,2007/3/4,11,8,6,9,4,2,97,75,54,1024,1016,1009,19,8,3,32,26,NA,3.05,6,Rain-Thunderstorm,293<br />
2007,2007/3/5,8,6,3,3,-4,-9,71,51,20,1033,1029,1025,14,10,5,29,18,50,0,3,,348<br />
2007,2007/3/6,5,2,-1,-2,-7,-9,75,51,28,1035,1031,1028,18,13,9,18,11,NA,0,2,,21<br />
2007,2007/3/7,9,4,-1,-2,-4,-6,82,54,30,1028,1025,1022,19,11,8,11,5,NA,0,0,,83<br />
2007,2007/3/8,11,6,2,1,-2,-4,75,54,25,1026,1024,1022,11,7,3,14,6,NA,0,3,,88<br />
2007,2007/3/9,14,9,3,4,2,-1,90,62,32,1025,1021,1017,14,6,2,11,6,NA,0,0,,134<br />
2007,2007/3/10,15,10,6,7,2,-5,87,62,35,1029,1023,1018,10,5,1,29,10,NA,0,2,,353<br />
2007,2007/3/11,11,6,1,-2,-4,-9,75,45,20,1031,1028,1025,19,13,8,14,8,NA,0,0,,89<br />
2007,2007/3/12,11,6,2,4,0,-3,71,60,41,1025,1022,1019,10,7,5,11,6,NA,0,4,,99<br />
2007,2007/3/13,17,10,4,8,5,2,98,69,37,1021,1018,1014,10,6,2,18,8,NA,0.76,4,,133<br />
2007,2007/3/14,13,11,9,11,9,6,100,92,63,1015,1013,1012,6,3,1,18,10,NA,7.87,8,Rain,62<br />
2007,2007/3/15,9,9,7,9,7,5,100,93,87,1019,1016,1014,7,4,2,26,14,NA,10.92,8,Rain,48<br />
2007,2007/3/16,7,7,6,7,4,3,100,88,76,1027,1024,1021,10,6,2,29,19,NA,6.1,7,Rain,47<br />
2007,2007/3/17,12,8,5,4,2,-2,82,61,31,1030,1028,1025,10,8,5,18,8,NA,0,8,,63<br />
2007,2007/3/18,8,7,5,4,1,-1,76,65,54,1027,1025,1023,14,8,6,14,10,NA,0,8,,64<br />
2007,2007/3/19,12,9,6,4,1,-3,77,59,27,1028,1026,1023,14,7,5,14,8,NA,0,4,,45<br />
2007,2007/3/20,15,9,3,6,1,-2,95,60,21,1029,1026,1023,19,7,2,18,6,NA,0,4,,139<br />
2007,2007/3/21,14,10,6,8,5,3,87,68,41,1024,1022,1021,10,7,1,11,8,NA,0,0,,127<br />
2007,2007/3/22,21,13,6,10,7,3,94,64,31,1024,1021,1017,10,5,1,14,5,NA,0,0,,108<br />
2007,2007/3/23,16,14,13,15,12,10,100,87,68,1017,1013,1010,10,3,1,14,6,NA,7.87,8,Fog-Rain,144<br />
2007,2007/3/24,21,16,12,15,13,11,100,83,62,1013,1011,1009,6,2,0,11,6,NA,0,5,Fog,299<br />
2007,2007/3/25,23,17,10,16,12,10,100,78,36,1015,1013,1010,7,2,0,11,5,NA,0,2,Fog,155<br />
2007,2007/3/26,20,17,14,14,11,9,80,68,52,1013,1011,1008,10,5,3,14,5,NA,1.02,7,Rain,120<br />
2007,2007/3/27,26,19,12,14,11,8,96,64,24,1016,1013,1011,19,8,3,14,8,NA,0,4,,198<br />
2007,2007/3/28,29,21,14,14,12,8,88,59,17,1013,1010,1008,18,8,5,26,11,NA,0,0,,196<br />
2007,2007/3/29,31,23,15,20,16,12,88,66,30,1010,1006,1003,19,8,4,32,10,NA,0,0,,127<br />
2007,2007/3/30,29,23,18,22,16,10,83,63,47,1010,1006,1001,10,6,4,26,14,NA,0,0,,131<br />
2007,2007/3/31,24,21,18,21,16,10,88,77,52,1010,1007,1003,10,3,1,21,10,NA,0,6,,16<br />
2007,2007/4/1,19,13,8,12,8,7,100,77,56,1019,1013,1006,10,4,2,35,16,61,37.08,7,Rain-Thunderstorm,42<br />
2007,2007/4/2,14,11,8,9,3,-2,86,58,25,1029,1024,1019,10,6,4,26,13,NA,0,7,,349<br />
2007,2007/4/3,15,10,5,2,-2,-6,65,43,16,1031,1029,1026,11,9,6,14,10,29,0,0,,338<br />
2007,2007/4/4,17,11,6,5,2,-1,92,53,21,1029,1026,1022,14,9,6,11,5,NA,0,0,,173<br />
2007,2007/4/5,17,14,12,9,7,4,82,66,38,1024,1022,1019,10,6,5,18,6,NA,0,7,,138<br />
2007,2007/4/6,21,14,8,11,8,4,100,67,30,1024,1022,1021,10,6,2,11,3,NA,0,1,,160<br />
2007,2007/4/7,22,16,10,12,8,3,98,63,20,1023,1021,1018,10,5,1,11,3,NA,0,0,,174<br />
2007,2007/4/8,21,16,12,9,3,-2,71,42,12,1025,1022,1020,14,8,4,18,10,NA,0,0,,37<br />
2007,2007/4/9,20,14,9,7,4,1,71,47,23,1023,1020,1018,11,9,7,14,6,NA,0,5,,116<br />
2007,2007/4/10,23,19,15,13,11,6,77,59,35,1020,1018,1017,10,7,5,18,11,NA,0,4,,162<br />
2007,2007/4/11,25,18,12,15,11,8,90,60,26,1019,1017,1014,10,7,3,21,8,NA,0,0,,159<br />
2007,2007/4/12,27,21,15,14,12,10,82,53,29,1014,1012,1008,11,7,5,32,11,NA,0,0,,172<br />
2007,2007/4/13,26,21,17,16,12,7,82,56,26,1016,1014,1012,14,5,2,14,8,NA,0,0,,57<br />
2007,2007/4/14,20,18,15,17,13,11,100,80,60,1014,1010,1008,10,3,1,21,8,NA,7.11,5,Fog-Rain-Thunderstorm,69<br />
2007,2007/4/15,22,19,15,16,13,9,100,77,43,1013,1010,1008,10,5,1,21,8,NA,1.02,4,Fog-Rain-Thunderstorm,285<br />
2007,2007/4/16,18,14,10,13,8,4,92,65,29,1017,1015,1013,10,5,1,18,11,NA,0,1,,349<br />
2007,2007/4/17,13,10,7,9,7,5,95,82,58,1020,1017,1014,10,5,2,18,6,NA,7.87,5,Rain-Thunderstorm,74<br />
2007,2007/4/18,18,12,7,11,8,5,100,72,47,1019,1015,1012,19,8,2,21,10,NA,0,2,,164<br />
2007,2007/4/19,25,18,12,12,10,9,85,56,31,1013,1010,1006,19,11,5,29,13,35,0,0,,161<br />
2007,2007/4/20,30,22,14,18,15,10,82,57,36,1010,1008,1006,19,10,6,14,6,NA,0,NA,Rain,165<br />
2007,2007/4/21,29,24,20,21,18,16,88,72,48,1009,1008,1006,10,7,4,18,8,NA,0,6,,157<br />
2007,2007/4/22,23,17,12,20,14,7,98,85,72,1017,1011,1006,9,4,1,32,18,58,22.1,7,Rain-Thunderstorm,40<br />
2007,2007/4/23,19,14,9,8,6,4,75,54,33,1019,1017,1014,19,12,8,18,8,NA,0,NA,,47<br />
2007,2007/4/24,21,17,13,11,8,6,82,58,31,1017,1016,1014,11,8,5,14,8,NA,0,4,Rain,332<br />
2007,2007/4/25,25,19,13,13,9,5,96,58,19,1019,1017,1016,14,6,2,18,6,NA,0,0,,244<br />
2007,2007/4/26,26,19,13,17,13,8,94,64,27,1020,1018,1017,10,7,3,11,3,NA,0,0,,158<br />
2007,2007/4/27,24,21,17,16,13,8,78,59,41,1022,1020,1018,11,7,4,14,6,NA,0,5,,193<br />
2007,2007/4/28,24,19,15,14,11,6,90,56,25,1023,1021,1019,10,6,1,18,5,NA,0,5,,99<br />
2007,2007/4/29,19,17,15,16,14,11,100,81,60,1020,1017,1013,8,5,2,18,10,NA,8.89,8,Rain,84<br />
2007,2007/4/30,24,19,15,17,14,12,100,76,41,1012,1010,1007,10,6,1,29,11,50,0.25,6,Rain,230<br />
2007,2007/5/1,25,19,14,17,14,12,97,68,38,1015,1014,1011,10,7,3,26,11,NA,0,1,,301<br />
2007,2007/5/2,27,20,14,16,14,12,96,66,28,1015,1012,1009,14,6,1,14,6,NA,0,0,Fog,160<br />
2007,2007/5/3,29,23,18,19,17,15,89,68,39,1011,1009,1008,10,7,3,21,8,NA,0,3,,220<br />
2007,2007/5/4,28,23,19,19,17,15,83,70,45,1011,1009,1006,8,5,3,14,8,NA,0,5,,220<br />
2007,2007/5/5,31,24,18,21,17,10,100,66,18,1008,1005,1003,14,5,1,29,8,NA,0,1,Fog,188<br />
2007,2007/5/6,28,22,16,14,8,4,68,42,14,1012,1010,1009,19,12,7,21,11,NA,0,0,,335<br />
2007,2007/5/7,29,22,15,17,13,10,93,59,22,1011,1009,1006,19,10,2,18,8,NA,0,0,,136<br />
2007,2007/5/8,32,26,19,21,17,15,78,60,30,1011,1008,1006,14,8,5,18,8,NA,0,0,,144<br />
2007,2007/5/9,26,22,18,21,19,16,94,78,65,1017,1012,1007,10,6,2,21,8,NA,0.51,5,Rain,36<br />
2007,2007/5/10,27,22,17,18,16,11,85,66,48,1018,1015,1012,10,5,4,21,13,NA,0,1,,88<br />
2007,2007/5/11,30,24,18,21,17,15,91,74,52,1015,1012,1011,8,4,2,32,10,NA,17.02,4,Rain,252<br />
2007,2007/5/12,23,19,16,17,14,10,100,73,36,1019,1017,1015,11,7,3,21,13,NA,7.11,5,Rain,266<br />
2007,2007/5/13,26,19,13,14,12,8,94,58,28,1018,1014,1010,14,9,6,18,6,NA,0,0,,182<br />
2007,2007/5/14,29,22,16,18,16,13,86,65,43,1012,1011,1009,14,7,4,18,8,NA,0,0,,161<br />
2007,2007/5/15,25,22,18,18,16,14,94,72,52,1011,1009,1006,14,8,5,18,10,NA,0.51,6,Rain,159<br />
2007,2007/5/16,31,24,18,19,13,2,100,58,9,1009,1006,1004,10,5,1,29,10,NA,0,7,Fog,253<br />
2007,2007/5/17,33,25,17,21,17,10,100,61,29,1009,1004,1001,14,7,1,21,8,NA,0,0,,200<br />
2007,2007/5/18,29,24,20,20,9,1,92,44,9,1013,1008,1002,11,6,2,21,10,43,0,0,,349<br />
2007,2007/5/19,28,21,15,11,8,1,63,42,9,1015,1012,1009,11,8,5,14,5,NA,0,0,,136<br />
2007,2007/5/20,32,26,19,20,17,11,78,56,38,1009,1006,1002,19,8,3,18,10,NA,0,0,,144<br />
2007,2007/5/21,33,27,22,22,20,18,91,64,34,1006,1004,1002,14,8,3,18,6,NA,0,0,,149<br />
2007,2007/5/22,33,29,24,23,21,19,83,61,33,1004,1001,999,10,5,1,26,11,NA,0,0,Fog,152<br />
2007,2007/5/23,29,27,25,26,23,22,100,83,70,1001,999,998,14,5,2,18,8,NA,7.11,5,Rain,157<br />
2007,2007/5/24,25,23,21,25,21,19,100,87,69,1005,1002,998,10,3,2,29,10,NA,6.1,6,Rain,278<br />
2007,2007/5/25,32,27,22,22,18,13,100,63,26,1007,1006,1004,8,4,1,14,5,NA,0,6,Fog,238<br />
2007,2007/5/26,31,27,23,23,22,20,92,71,47,1008,1006,1004,10,4,2,11,5,NA,0,7,,147<br />
2007,2007/5/27,33,28,24,23,21,19,95,66,35,1007,1005,1003,10,4,1,11,5,NA,0,1,,182<br />
2007,2007/5/28,34,29,24,26,23,19,94,70,32,1008,1006,1004,10,4,1,11,5,NA,0,0,,139<br />
2007,2007/5/29,33,28,24,25,23,21,86,70,42,1010,1008,1006,5,2,0,11,6,NA,0,2,Fog,119<br />
2007,2007/5/30,34,29,24,22,20,17,79,58,37,1011,1008,1006,10,4,1,26,11,NA,2.03,1,Rain,108<br />
2007,2007/5/31,25,23,21,23,22,20,100,90,74,1006,1005,1003,6,3,1,26,13,NA,16,8,Fog-Rain,105<br />
2007,2007/6/1,23,21,20,23,19,18,100,88,78,1007,1004,1002,5,2,1,21,11,NA,0.76,6,Fog-Rain,312<br />
2007,2007/6/2,22,21,19,19,18,18,100,87,78,1009,1007,1005,10,5,2,14,8,NA,1.02,7,Rain,38<br />
2007,2007/6/3,26,23,20,21,19,18,94,78,61,1011,1009,1008,10,4,2,18,8,NA,0,6,,86<br />
2007,2007/6/4,26,23,21,22,19,19,94,80,69,1010,1008,1007,5,3,2,14,10,NA,0,4,,82<br />
2007,2007/6/5,29,24,19,22,19,18,100,78,53,1009,1008,1006,3,1,0,11,6,NA,0,5,Fog,82<br />
2007,2007/6/6,31,26,21,22,19,17,96,67,35,1009,1007,1005,11,5,1,14,6,NA,0,0,Fog,108<br />
2007,2007/6/7,31,26,21,22,21,19,97,68,42,1008,1006,1005,14,7,2,11,8,NA,0,0,,108<br />
2007,2007/6/8,33,27,22,22,20,18,95,64,36,1009,1007,1006,14,7,2,14,8,NA,0,1,,77<br />
2007,2007/6/9,32,28,24,22,18,14,78,56,26,1009,1007,1006,10,6,2,14,5,NA,0,5,,75<br />
2007,2007/6/10,27,24,22,21,18,17,88,71,59,1010,1008,1007,6,4,1,18,11,NA,0,7,,48<br />
2007,2007/6/11,31,26,21,21,18,15,85,63,30,1009,1007,1005,10,6,2,18,8,NA,0,5,,95<br />
2007,2007/6/12,26,23,21,22,19,17,100,81,65,1008,1006,1005,10,5,1,18,11,NA,7.11,8,Rain,88<br />
2007,2007/6/13,22,21,19,21,19,18,100,89,78,1007,1005,1004,8,3,1,14,8,NA,5.08,8,Rain,64<br />
2007,2007/6/14,25,22,19,20,18,17,100,79,62,1008,1006,1005,11,6,2,14,8,NA,0.51,6,Rain,50<br />
2007,2007/6/15,28,23,19,21,19,17,98,74,46,1010,1008,1007,10,5,1,11,5,NA,1.02,2,Rain,172<br />
2007,2007/6/16,28,24,21,21,20,19,99,77,53,1011,1009,1008,5,3,1,11,8,NA,0,5,,77<br />
2007,2007/6/17,29,24,20,21,19,18,96,74,53,1010,1009,1006,10,4,1,14,8,NA,0,4,,96<br />
2007,2007/6/18,30,25,20,23,21,17,88,74,62,1009,1007,1005,6,4,2,14,8,NA,0,3,,90<br />
2007,2007/6/19,30,27,24,26,24,22,94,83,74,1008,1007,1006,6,3,2,14,10,NA,0.51,6,Rain,101<br />
2007,2007/6/20,27,24,23,26,23,21,100,88,78,1008,1006,1005,10,4,1,18,10,NA,0,6,Fog,236<br />
2007,2007/6/21,28,26,23,22,21,20,92,77,65,1008,1007,1005,10,4,2,14,11,NA,0,5,,282<br />
2007,2007/6/22,31,27,24,26,23,22,91,77,63,1008,1006,1004,3,3,1,11,5,NA,0.25,5,,84<br />
2007,2007/6/23,29,27,24,27,24,22,98,86,70,1006,1005,1003,10,5,0,18,8,NA,7.11,5,Fog-Rain-Thunderstorm,263<br />
2007,2007/6/24,34,28,22,27,24,21,100,83,59,1005,1003,1001,14,5,0,14,5,NA,0,4,Fog,182<br />
2007,2007/6/25,34,29,24,27,24,20,98,75,35,1004,1002,1000,14,6,3,11,5,NA,0,5,,143<br />
2007,2007/6/26,31,28,26,26,24,22,89,79,70,1003,1002,1000,14,9,4,18,10,NA,0,3,Rain,165<br />
2007,2007/6/27,32,29,26,27,26,24,97,84,69,1002,1000,998,10,7,4,29,11,NA,3.05,3,Rain,176<br />
2007,2007/6/28,28,27,26,27,25,24,99,89,79,1005,1003,1001,14,5,2,14,6,NA,4.06,6,Rain-Thunderstorm,167<br />
2007,2007/6/29,34,29,25,27,26,25,100,80,59,1006,1004,1002,18,8,3,14,10,NA,0,3,,159<br />
2007,2007/6/30,31,28,26,27,25,24,90,78,70,1005,1003,1001,10,9,5,29,11,NA,0.25,7,Rain,182<br />
2007,2007/7/1,29,27,25,27,24,23,99,88,79,1005,1003,1002,14,9,5,18,10,NA,4.06,4,Rain-Thunderstorm,218<br />
2007,2007/7/2,30,27,24,27,25,23,100,88,72,1006,1004,1003,10,7,3,11,5,NA,10.92,5,Rain-Thunderstorm,221<br />
2007,2007/7/3,33,29,25,28,26,23,100,87,71,1004,1002,1000,10,7,3,26,8,NA,2.03,5,Rain-Thunderstorm,194<br />
2007,2007/7/4,29,26,23,27,24,23,100,91,79,1005,1003,1001,14,6,1,11,6,NA,27.94,7,Rain-Thunderstorm,86<br />
2007,2007/7/5,33,30,27,28,27,26,100,81,70,1002,1001,1000,11,5,2,26,13,NA,0,4,,176<br />
2007,2007/7/6,35,30,26,28,26,25,100,83,67,1004,1002,1000,10,6,1,29,8,32,29.97,4,Rain-Thunderstorm,209<br />
2007,2007/7/7,34,30,26,30,27,25,100,88,71,1004,1002,1000,10,5,1,14,3,NA,6.1,4,Rain-Thunderstorm,140<br />
2007,2007/7/8,29,27,26,28,26,24,99,87,74,1002,1000,998,10,7,0,18,6,NA,0.51,4,Fog-Rain,56<br />
2007,2007/7/9,27,26,24,26,24,24,100,95,89,999,998,996,31,6,2,14,6,NA,23.11,6,Rain-Thunderstorm,277<br />
2007,2007/7/10,31,28,24,27,24,23,100,85,69,1001,999,997,14,6,2,11,3,NA,0,4,,153<br />
2007,2007/7/11,33,29,26,28,26,25,100,82,57,1002,1000,999,10,4,0,11,3,NA,0,3,Fog,125<br />
2007,2007/7/12,34,30,26,27,26,24,99,75,56,1003,1002,1001,6,3,1,14,8,NA,0,2,,77<br />
2007,2007/7/13,29,27,26,27,25,24,96,86,79,1002,1001,999,10,3,1,18,13,NA,0,7,Fog,60<br />
2007,2007/7/14,29,27,25,26,24,23,99,90,79,1001,1000,998,8,4,1,18,11,NA,3.05,7,Rain,84<br />
2007,2007/7/15,29,26,23,26,23,21,100,81,60,1003,1001,998,10,7,1,26,11,NA,0,6,Rain,269<br />
2007,2007/7/16,33,28,24,27,24,23,99,82,66,1004,1002,1000,10,5,2,18,6,NA,0,3,Rain-Thunderstorm,144<br />
2007,2007/7/17,34,30,26,28,27,25,97,80,66,1002,1001,999,19,8,3,18,8,NA,0,3,,169<br />
2007,2007/7/18,35,32,29,28,27,26,87,74,63,1001,999,997,14,8,5,32,11,NA,0,0,,183<br />
2007,2007/7/19,34,31,29,29,27,25,86,76,59,1002,1000,998,14,7,5,14,10,NA,0,2,,183<br />
2007,2007/7/20,35,30,25,29,27,23,92,82,65,1005,1002,1001,11,5,2,21,8,NA,3.05,4,Rain-Thunderstorm,249<br />
2007,2007/7/21,27,24,23,23,21,20,99,81,68,1007,1006,1004,10,5,3,14,8,NA,0,7,,295<br />
2007,2007/7/22,29,27,24,26,23,20,98,84,74,1008,1006,1005,6,4,2,14,5,NA,6.1,6,Rain,68<br />
2007,2007/7/23,28,26,24,26,24,23,100,91,79,1009,1007,1005,10,5,1,14,5,NA,16,6,Fog-Rain-Thunderstorm,5<br />
2007,2007/7/24,30,27,24,27,24,23,99,86,74,1009,1008,1006,10,5,1,11,5,NA,22.1,3,Rain-Thunderstorm,36<br />
2007,2007/7/25,34,29,25,28,26,24,100,81,58,1009,1007,1006,10,5,1,14,5,NA,0,4,,27<br />
2007,2007/7/26,34,29,25,28,25,22,100,80,63,1011,1008,1007,19,7,3,18,5,NA,3.05,3,Rain-Thunderstorm,150<br />
2007,2007/7/27,34,29,24,27,25,22,97,79,57,1010,1008,1007,11,6,3,11,6,NA,0,0,,133<br />
2007,2007/7/28,36,31,27,28,27,24,100,77,57,1009,1008,1006,10,5,1,18,6,NA,0,0,,134<br />
2007,2007/7/29,36,31,27,28,26,22,87,70,48,1009,1008,1006,11,7,4,14,5,NA,0,0,Thunderstorm,165<br />
2007,2007/7/30,36,31,27,28,26,23,87,70,51,1009,1007,1005,10,7,3,11,6,NA,0,0,,141<br />
2007,2007/7/31,37,32,27,29,26,24,95,75,53,1007,1004,1002,11,7,4,14,5,NA,1.02,0,Rain-Thunderstorm,172<br />
2007,2007/8/1,37,32,27,28,26,24,96,71,47,1004,1003,1000,11,7,2,14,5,29,0,0,Thunderstorm,175<br />
2007,2007/8/2,37,31,25,29,26,22,96,79,53,1006,1003,1001,10,6,1,26,6,NA,28.96,2,Fog-Rain-Thunderstorm,166<br />
2007,2007/8/3,31,28,25,26,24,23,98,85,70,1007,1005,1003,14,7,4,26,5,NA,5.08,5,Rain-Thunderstorm,288<br />
2007,2007/8/4,31,28,26,26,26,25,99,85,70,1006,1005,1004,10,6,2,11,5,NA,0.25,5,Rain-Thunderstorm,114<br />
2007,2007/8/5,33,29,26,27,26,24,100,81,60,1007,1005,1004,11,7,2,11,5,NA,0.25,4,Rain-Thunderstorm,171<br />
2007,2007/8/6,34,30,26,28,26,22,98,78,61,1007,1006,1004,10,6,3,18,6,NA,0,1,Thunderstorm,142<br />
2007,2007/8/7,35,31,28,28,27,25,92,80,59,1005,1003,1001,14,6,3,14,6,NA,0,2,Thunderstorm,153<br />
2007,2007/8/8,37,32,28,29,26,22,94,72,42,1004,1003,1002,10,6,2,11,5,NA,0,0,,120<br />
2007,2007/8/9,36,32,28,28,27,26,92,73,56,1004,1003,1001,14,10,5,18,10,NA,0,0,,104<br />
2007,2007/8/10,36,32,28,27,26,24,93,70,45,1002,1000,998,19,11,6,21,11,NA,0,2,,109<br />
2007,2007/8/11,34,31,27,27,26,23,89,76,43,999,998,995,14,8,3,26,8,NA,1.02,4,Rain-Thunderstorm,2<br />
2007,2007/8/12,32,29,26,26,23,19,94,72,43,1000,997,996,14,6,2,21,13,NA,0,5,,330<br />
2007,2007/8/13,31,27,24,24,23,22,93,73,57,1002,1001,999,14,6,3,14,3,NA,0,3,,154<br />
2007,2007/8/14,30,27,24,25,23,21,94,77,66,1004,1003,1002,10,4,1,14,3,NA,1.02,5,Fog-Rain,77<br />
2007,2007/8/15,27,24,22,24,22,21,98,87,78,1007,1005,1004,6,3,1,18,8,NA,6.1,6,Rain,41<br />
2007,2007/8/16,31,26,22,27,24,21,100,88,74,1009,1007,1005,10,3,1,14,5,NA,0.51,6,Rain,290<br />
2007,2007/8/17,34,30,26,28,26,25,100,80,61,1010,1008,1007,11,5,1,11,6,NA,0,5,Fog,20<br />
2007,2007/8/18,35,30,26,28,26,25,100,77,53,1009,1007,1004,14,7,1,11,5,NA,0,2,Fog,40<br />
2007,2007/8/19,34,30,26,27,26,24,93,77,59,1006,1005,1003,19,9,2,21,11,NA,0,2,,57<br />
2007,2007/8/20,33,29,26,27,26,25,97,80,66,1005,1003,1001,10,6,3,14,13,NA,0,4,,44<br />
2007,2007/8/21,32,29,26,27,26,25,100,87,66,1003,1002,1001,10,5,3,14,10,NA,29.97,3,Rain-Thunderstorm,52<br />
2007,2007/8/22,34,30,26,28,26,25,100,84,66,1006,1004,1002,10,5,2,11,5,NA,0,5,,65<br />
2007,2007/8/23,34,30,27,28,27,25,100,83,66,1010,1007,1005,6,3,1,11,5,NA,2.03,5,Fog,93<br />
2007,2007/8/24,35,31,27,28,27,25,100,81,59,1012,1010,1008,10,4,1,14,6,NA,0,2,Fog,75<br />
2007,2007/8/25,35,30,26,27,26,24,97,75,59,1013,1011,1009,11,6,3,14,5,NA,0,2,,104<br />
2007,2007/8/26,35,31,27,27,25,24,95,72,50,1011,1010,1007,19,9,4,14,8,NA,0,2,,80<br />
2007,2007/8/27,32,28,25,27,25,24,100,85,61,1010,1009,1008,10,5,2,18,8,NA,28.96,2,Rain-Thunderstorm,352<br />
2007,2007/8/28,29,27,25,26,25,24,100,92,79,1013,1010,1008,8,2,1,18,10,NA,5.08,7,Rain,282<br />
2007,2007/8/29,32,28,25,26,24,23,99,80,59,1011,1009,1006,8,3,0,11,5,NA,0,2,Fog,60<br />
2007,2007/8/30,33,29,24,28,24,22,94,79,66,1008,1006,1004,6,4,1,14,8,NA,0.25,2,Rain-Thunderstorm,116<br />
2007,2007/8/31,29,26,22,26,23,21,100,86,77,1007,1005,1004,9,3,1,14,6,NA,2.03,7,Rain,340<br />
2007,2007/9/1,25,23,21,22,21,20,100,89,74,1010,1008,1006,10,7,2,18,13,NA,3.05,7,Rain,335<br />
2007,2007/9/2,28,25,22,22,21,19,93,75,52,1011,1010,1008,10,7,5,6,3,NA,0,6,,9<br />
2007,2007/9/3,25,23,21,23,21,19,100,87,73,1012,1011,1009,10,4,2,14,5,NA,2.03,5,Rain,38<br />
2007,2007/9/4,27,23,21,21,19,17,94,74,50,1014,1012,1011,11,8,2,14,6,NA,0.51,4,Rain,13<br />
2007,2007/9/5,29,24,20,19,16,12,91,61,29,1014,1012,1011,14,7,3,14,6,NA,0,1,,334<br />
2007,2007/9/6,29,23,18,21,17,15,100,66,35,1013,1011,1009,10,6,1,11,5,NA,0,1,,294<br />
2007,2007/9/7,29,24,19,20,18,16,98,66,34,1011,1010,1008,10,5,1,6,3,NA,0,2,Fog,148<br />
2007,2007/9/8,29,26,22,21,18,16,89,66,48,1012,1010,1009,10,5,1,11,5,NA,0,5,,60<br />
2007,2007/9/9,30,25,20,19,16,12,88,56,25,1013,1012,1010,10,6,3,14,8,NA,0,3,,53<br />
2007,2007/9/10,30,26,21,22,18,15,86,65,40,1014,1012,1011,10,5,2,14,6,NA,0,2,,97<br />
2007,2007/9/11,31,26,22,20,17,13,83,58,23,1014,1012,1011,10,5,1,14,8,NA,0,3,,74<br />
2007,2007/9/12,31,26,21,20,16,10,85,54,19,1014,1012,1010,19,7,2,21,10,NA,0,1,,87<br />
2007,2007/9/13,32,27,23,20,17,11,75,55,27,1013,1011,1009,10,6,2,11,8,32,0,7,Rain,69<br />
2007,2007/9/14,26,23,21,22,21,19,94,85,65,1011,1010,1009,5,2,1,14,8,NA,0,6,Fog-Rain,291<br />
2007,2007/9/15,29,24,21,20,18,17,92,71,43,1011,1009,1007,10,3,1,11,6,NA,0,4,,10<br />